[[{"header":{"parameterUnit":"m.s-1","parameterCategory":1,"la1":30.2991,"la2":30.254,"lo1":-89.0895,"lo2":-89.0444,"dy":0.0017,"dx":0.0017,"nx":28,"ny":28,"refTime":"2024-04-08T09:00:00:Z","depth":0,"parameterNumber":2,"parameterNumberName":"U-component_of_WINDS"},"data":[0,0,0,0,0,0,0,0,0,0,0,0,0,0,0,0,0,0,0,0,0,0,0,0,0,0,0,0,0,0,0,0,0,0,0,0,0,0,0,0,0,0,0,0,0,0,0,0,0,0,0,0,0,0,0,0,0,0,-6.3619,-6.3619,0,-6.3598,-6.3598,-6.3598,-6.3465,-6.3462,-6.3459,-6.3456,-6.3436,-6.3438,-6.344,0,0,0,0,0,0,0,0,0,0,0,0,0,-6.3545,-6.3547,-6.3619,-6.3619,-6.3618,-6.3598,-6.3598,-6.3598,-6.3466,-6.3462,-6.3458,-6.3454,-6.3435,-6.3438,-6.3441,0,0,0,0,0,0,0,0,0,0,0,0,0,-6.3556,-6.3548,-6.3619,-6.355,-6.3544,-6.3598,-6.3598,-6.3597,-6.3467,-6.3462,-6.3457,-6.3453,-6.3434,-6.3437,-6.3441,-6.356,0,0,-6.3452,-6.3454,0,0,0,0,0,0,0,0,-6.3556,-6.3559,-6.3561,-6.3555,-6.3548,-6.3529,-6.3564,-6.3585,-6.3468,-6.3496,-6.3456,-6.345,-6.3471,-6.3471,-6.3478,-6.3559,-6.3558,-6.3452,-6.3455,-6.3456,-6.3457,0,0,0,0,0,0,0,-6.3555,-6.3559,-6.3611,-6.3561,-6.3553,-6.3521,-6.3517,-6.3568,-6.3511,-6.3493,-6.3484,-6.3483,-6.3466,-6.3475,-6.3476,-6.3558,-6.3452,-6.3456,-6.3458,-6.3459,-6.3734,-6.3739,0,0,0,0,0,0,-6.3564,-6.356,-6.3611,-6.361,-6.354,-6.3526,-6.3522,-6.354,-6.351,-6.35,-6.3487,-6.3477,-6.3471,-6.3472,-6.3475,-6.361,-6.3456,-6.346,-6.3462,-6.3729,-6.3735,-6.3741,0,0,0,0,0,0,-6.3563,-6.357,-6.3612,-6.3582,-6.3585,-6.3532,-6.3554,-6.3542,-6.355,-6.3505,-6.3494,-6.3506,-6.3467,-6.347,-6.3539,-6.3607,-6.3461,-6.3465,-6.3723,-6.3731,-6.3738,-6.3882,0,0,0,0,0,0,-6.3561,-6.357,-6.3615,-6.3584,-6.3587,-6.3677,-6.3558,-6.3545,-6.3557,-6.3543,-6.352,-6.3511,-6.3463,-6.3535,-6.3543,-6.361,-6.3468,-6.3717,-6.3727,-6.3736,-6.3871,-6.3894,-6.3914,0,0,0,0,0,-6.3559,-6.3657,-6.3618,-6.3624,-6.3641,-6.3681,-6.3683,-6.3625,-6.3563,-6.3607,-6.3578,-6.3512,-6.36,-6.3543,-6.3551,-6.362,-6.3712,-6.3724,-6.3735,-6.3862,-6.389,-6.3913,0,0,0,0,0,0,-6.3697,-6.3651,-6.3607,-6.3698,-6.3694,-6.3658,-6.3712,-6.3657,-6.3671,-6.3658,-6.3587,-6.3582,-6.3662,-6.3649,-6.3586,-6.3733,-6.3644,-6.3658,-6.3738,-6.3764,-6.3785,-6.3785,-6.3471,0,0,0,0,0,-6.3738,-6.3773,-6.3732,-6.3816,-6.3816,-6.3765,-6.378,-6.3737,-6.373,-6.3728,-6.3704,-6.37,-6.3726,-6.3745,-6.3767,-6.387,-6.3862,-6.3922,-6.3943,-6.3961,-6.3972,-6.4024,-6.4049,-6.3778,-6.3778,-6.3778,0,0,-6.3822,-6.3802,-6.3828,-6.3843,-6.3835,-6.3873,-6.3764,-6.381,-6.3837,-6.3735,-6.3797,-6.3781,-6.3772,-6.3858,-6.3895,-6.3849,-6.4046,-6.3976,-6.399,-6.3991,-6.4038,-6.4064,-6.4087,-6.3786,-6.3785,-6.3784,0,0,-6.3994,-6.3984,-6.4051,-6.4046,-6.4035,-6.4,-6.4017,-6.399,-6.3974,-6.4037,-6.396,-6.3993,-6.4041,-6.4037,-6.4041,-6.4215,-6.4154,-6.4224,-6.4333,-6.4384,-6.4406,-6.4424,-6.4483,-6.4505,-6.4237,-6.4237,-6.4237,0,-6.41,-6.4154,-6.4093,-6.4142,-6.415,-6.4061,-6.4128,-6.4126,-6.4123,-6.4131,-6.4081,-6.4138,-6.4126,-6.4209,-6.4251,-6.4259,-6.4275,-6.4224,-6.4408,-6.4425,-6.4442,-6.4497,-6.452,-6.4246,-6.4245,-6.4244,-6.4243,0,-6.4283,-6.4322,-6.4378,-6.4377,-6.4392,-6.4451,-6.4399,-6.4422,-6.4378,-6.4349,-6.4414,-6.4397,-6.4413,-6.443,-6.4389,-6.4508,-6.4479,-6.442,-6.4328,-6.4477,-6.4527,-6.4548,-6.4258,-6.4255,-6.4252,-6.425,0,0,-6.4538,-6.4503,-6.4524,-6.4522,-6.4505,-6.4534,-6.4589,-6.4605,-6.4624,-6.4627,-6.467,-6.4714,-6.4658,-6.4663,-6.4621,-6.4666,-6.4801,-6.46,-6.4599,-6.4635,-6.4929,-6.4971,-6.4996,-6.4763,-6.4767,-6.477,-6.4928,0,-6.47,-6.479,-6.4738,-6.4835,-6.487,-6.4786,-6.4834,-6.4829,-6.4804,-6.483,-6.4803,-6.4833,-6.476,-6.4762,-6.4804,-6.4776,-6.4859,-6.4765,-6.48,-6.4802,-6.48,-6.5023,-6.5068,-6.5218,-6.4948,-6.4952,-6.4954,0,-6.49,-6.491,-6.5012,-6.4987,-6.4999,-6.5043,-6.5052,-6.5079,-6.5072,-6.5051,-6.5058,-6.5004,-6.5056,-6.497,-6.504,-6.4977,-6.499,-6.4979,-6.4983,-6.4981,-6.4884,-6.5023,-6.5265,-6.5286,-6.4985,-6.4983,-6.4981,0,-6.5071,-6.5111,-6.5175,-6.5177,-6.5151,-6.5183,-6.5174,-6.5162,-6.5175,-6.5184,-6.5191,-6.5208,-6.5216,-6.523,-6.5182,-6.5124,-6.5259,-6.5168,-6.5241,-6.5242,-6.5269,-6.5267,-6.5512,-6.5285,-6.5284,-6.5284,-6.5283,0,-6.5255,-6.5319,-6.5251,-6.5291,-6.5361,-6.5301,-6.5372,-6.5354,-6.5345,-6.5379,-6.531,-6.5344,-6.5281,-6.5309,-6.5273,-6.5335,-6.534,-6.5324,-6.5312,-6.5327,-6.5329,-6.5331,-6.5318,-6.529,-6.5288,-6.5287,-6.5286,0,-6.5455,-6.5413,-6.5477,-6.5448,-6.5442,-6.5495,-6.5469,-6.5505,-6.5477,-6.5521,-6.5529,-6.5484,-6.5514,-6.5469,-6.5494,-6.5469,-6.5554,-6.553,-6.5556,-6.5547,-6.5621,-6.5613,-6.5872,-6.5901,-6.566,-6.5662,-6.5664,0,-6.5573,-6.562,-6.5596,-6.5614,-6.5608,-6.5639,-6.5651,-6.5596,-6.5611,-6.5607,-6.5643,-6.5667,-6.5682,-6.5733,-6.5703,-6.5722,-6.5694,-6.5784,-6.5696,-6.571,-6.5691,-6.5687,-6.569,-6.5801,-6.5803,-6.5806,-6.5808,0,-6.5785,-6.5762,-6.5782,-6.5796,-6.5813,-6.5821,-6.5824,-6.5843,-6.5785,-6.5807,-6.5835,-6.5848,-6.5873,-6.5896,-6.5908,-6.5898,-6.5843,-6.5837,-6.5853,-6.5867,-6.5878,-6.5869,-6.5601,-6.583,-6.5827,-6.5826,-6.5825,-6.5824,-6.5945,-6.5982,-6.597,-6.5995,-6.5992,-6.5997,-6.6028,-6.6005,-6.6028,-6.6043,-6.601,-6.6047,-6.6039,-6.6048,-6.6045,-6.6073,-6.6034,-6.6059,-6.6065,-6.6071,-6.6081,-6.5879,-6.6076,-6.6075,-6.6075,-6.6074,-6.6073,0,-6.615,-6.6139,-6.6163,-6.6169,-6.6189,-6.6137,-6.6138,-6.6158,-6.6191,-6.6188,-6.6205,-6.6238,-6.6261,-6.6235,-6.6253,-6.6281,-6.6256,-6.6287,-6.6282,-6.628,-6.6117,-6.6098,-6.6306,-6.6306,-6.6306,-6.6306,-6.6306,-6.6306,-6.6258,-6.6318,-6.6294,-6.6352,-6.6341,-6.6375,-6.638,-6.6384,-6.6381,-6.6421,-6.644,-6.6423,-6.641,-6.6427,-6.6446,-6.6438,-6.6446,-6.6486,-6.6468,-6.6315,-6.6292,-6.627,-6.6252,-6.6489,-6.6489,-6.6628,-6.6629,-6.663]},{"header":{"parameterUnit":"m.s-1","parameterCategory":1,"la1":30.2991,"la2":30.254,"lo1":-89.0895,"lo2":-89.0444,"dy":0.0017,"dx":0.0017,"nx":28,"ny":28,"refTime":"2024-04-08T09:00:00:Z","depth":0,"parameterNumber":3,"parameterNumberName":"V-component_of_WINDS"},"data":[0,0,0,0,0,0,0,0,0,0,0,0,0,0,0,0,0,0,0,0,0,0,0,0,0,0,0,0,0,0,0,0,0,0,0,0,0,0,0,0,0,0,0,0,0,0,0,0,0,0,0,0,0,0,0,0,0,0,1.3811,1.3812,0,1.384,1.384,1.3841,1.3844,1.3844,1.3844,1.3843,1.3872,1.3873,1.3874,0,0,0,0,0,0,0,0,0,0,0,0,0,1.376,1.3761,1.3811,1.3812,1.3812,1.384,1.384,1.3841,1.3844,1.3844,1.3844,1.3843,1.3871,1.3872,1.3874,0,0,0,0,0,0,0,0,0,0,0,0,0,1.3785,1.3761,1.3811,1.3817,1.3818,1.384,1.384,1.3841,1.3844,1.3844,1.3843,1.3843,1.3871,1.3872,1.3874,1.3891,0,0,1.3878,1.3879,0,0,0,0,0,0,0,0,1.3783,1.3786,1.3816,1.3817,1.3818,1.3838,1.3833,1.3858,1.3844,1.3834,1.3843,1.3843,1.3861,1.3863,1.3869,1.3893,1.3894,1.3879,1.388,1.388,1.3881,0,0,0,0,0,0,0,1.3781,1.3785,1.3823,1.3816,1.3817,1.3818,1.3822,1.3837,1.3849,1.3835,1.3835,1.3839,1.3861,1.3868,1.387,1.3894,1.3879,1.388,1.3881,1.3881,1.3936,1.3936,0,0,0,0,0,0,1.3779,1.3784,1.3822,1.3823,1.3799,1.382,1.3823,1.3832,1.3849,1.3851,1.3839,1.3839,1.3865,1.3868,1.3871,1.3894,1.388,1.3882,1.3882,1.3935,1.3936,1.3936,0,0,0,0,0,0,1.3778,1.3782,1.382,1.3804,1.3809,1.3821,1.3831,1.3833,1.3839,1.3852,1.3854,1.3844,1.3865,1.3869,1.3887,1.3895,1.3882,1.3884,1.3935,1.3935,1.3936,1.3939,0,0,0,0,0,0,1.3776,1.3782,1.3788,1.3804,1.381,1.3836,1.3831,1.3834,1.3842,1.3842,1.3857,1.3859,1.3865,1.3885,1.3888,1.3897,1.3885,1.3934,1.3935,1.3936,1.3938,1.394,1.3941,0,0,0,0,0,1.3774,1.3787,1.3788,1.3793,1.3818,1.3836,1.3839,1.3846,1.3843,1.385,1.3858,1.3859,1.3893,1.3886,1.3891,1.39,1.3933,1.3935,1.3936,1.3938,1.394,1.3941,0,0,0,0,0,0,1.3771,1.3789,1.3791,1.3809,1.3821,1.3837,1.3845,1.3848,1.386,1.386,1.3867,1.3871,1.3889,1.3896,1.3888,1.3919,1.3913,1.3915,1.3913,1.3915,1.3916,1.3914,1.3886,0,0,0,0,0,1.3773,1.3786,1.3801,1.3816,1.3822,1.3833,1.3841,1.3845,1.3858,1.3863,1.3873,1.3884,1.3898,1.3907,1.392,1.394,1.3943,1.3948,1.3949,1.3951,1.3952,1.3964,1.3967,1.394,1.394,1.394,0,0,1.3776,1.3787,1.3795,1.3816,1.3825,1.3839,1.3837,1.3851,1.3862,1.3865,1.3883,1.3891,1.3904,1.3924,1.3933,1.393,1.3961,1.3952,1.3953,1.3954,1.3966,1.3968,1.3971,1.3941,1.3941,1.3941,0,0,1.3788,1.3798,1.3812,1.3823,1.3838,1.3846,1.3849,1.3865,1.3871,1.3889,1.3892,1.3905,1.3928,1.3938,1.3946,1.3966,1.3967,1.397,1.3977,1.3989,1.3991,1.3993,1.4001,1.4003,1.3971,1.3971,1.3971,0,1.379,1.3811,1.3819,1.3834,1.3844,1.3848,1.3863,1.3873,1.3891,1.3898,1.3895,1.3926,1.3935,1.3958,1.3963,1.3969,1.3974,1.3968,1.399,1.3992,1.3994,1.4002,1.4004,1.3972,1.3972,1.3972,1.3972,0,1.3813,1.3828,1.3838,1.3857,1.3867,1.3882,1.3893,1.3903,1.3907,1.3915,1.3934,1.3946,1.3963,1.3968,1.3972,1.3992,1.399,1.3989,1.3983,1.3997,1.4004,1.4007,1.3972,1.3972,1.3972,1.3972,0,0,1.3823,1.3848,1.3852,1.3861,1.388,1.3891,1.3907,1.3924,1.3933,1.3946,1.3959,1.398,1.398,1.3989,1.3994,1.4004,1.402,1.4002,1.4003,1.4006,1.4044,1.4045,1.4048,1.4022,1.4022,1.4023,1.4043,0,1.3839,1.3867,1.3876,1.3899,1.3914,1.3919,1.3933,1.3946,1.3954,1.3968,1.3977,1.3992,1.399,1.3996,1.4006,1.4016,1.4028,1.4015,1.4035,1.4035,1.4031,1.4052,1.4053,1.4072,1.4046,1.4046,1.4047,0,1.386,1.3875,1.39,1.3919,1.3925,1.3937,1.3955,1.3967,1.3983,1.3988,1.4,1.4005,1.4022,1.4016,1.404,1.4031,1.4039,1.4046,1.4047,1.4049,1.4042,1.4055,1.4078,1.4081,1.4051,1.4051,1.405,0,1.3866,1.3892,1.3911,1.3919,1.3941,1.3949,1.3959,1.3974,1.3984,1.3999,1.4006,1.4023,1.4032,1.4045,1.4054,1.4049,1.4078,1.4072,1.4083,1.4083,1.4089,1.4088,1.4114,1.4094,1.4094,1.4094,1.4094,0,1.3882,1.3897,1.3914,1.3926,1.3944,1.3955,1.3972,1.3982,1.3995,1.4009,1.4015,1.4028,1.404,1.4054,1.4062,1.4081,1.4085,1.409,1.4092,1.409,1.4089,1.4096,1.4095,1.4095,1.4094,1.4094,1.4094,0,1.3891,1.3903,1.3924,1.3944,1.3949,1.3962,1.3979,1.399,1.4,1.4018,1.4022,1.4037,1.4055,1.4066,1.4088,1.4093,1.4115,1.4116,1.411,1.4111,1.4121,1.412,1.4151,1.4156,1.4133,1.4133,1.4133,0,1.39,1.3913,1.3934,1.3945,1.3955,1.3971,1.3982,1.3993,1.4004,1.4024,1.4034,1.4052,1.4068,1.4096,1.4109,1.4126,1.4128,1.4138,1.413,1.4128,1.4129,1.4128,1.413,1.4139,1.4139,1.4139,1.4139,0,1.3916,1.3923,1.3938,1.3957,1.3971,1.3986,1.4001,1.4009,1.4023,1.4035,1.4054,1.4066,1.409,1.4109,1.4128,1.4137,1.4141,1.4142,1.4145,1.4143,1.414,1.4143,1.4113,1.4141,1.4141,1.414,1.414,1.414,1.3927,1.3939,1.3956,1.3974,1.3987,1.4002,1.4015,1.4026,1.4043,1.4063,1.4069,1.4089,1.4106,1.4132,1.4142,1.4158,1.4157,1.4161,1.4163,1.4164,1.4165,1.4137,1.4162,1.4162,1.4162,1.4162,1.4161,0,1.3944,1.3956,1.3973,1.3994,1.4009,1.4012,1.403,1.4042,1.406,1.4075,1.4091,1.4113,1.4132,1.4147,1.4166,1.4176,1.4178,1.4181,1.418,1.4183,1.4165,1.416,1.4179,1.4179,1.4179,1.4179,1.4179,1.4179,1.3954,1.3975,1.3984,1.4011,1.4024,1.4044,1.4054,1.4068,1.408,1.4106,1.4121,1.4131,1.4147,1.4168,1.4185,1.4189,1.4196,1.4198,1.4203,1.4185,1.4184,1.4182,1.4178,1.42,1.42,1.4219,1.422,1.422]}]]